This is the latest recevied weather packets stored in our database for station/object KD8OUK. If no packets are shown the sender has not sent any weather packets the latest 10 day(s).
| Time | Temp. | Humidity | Pressure | Rain* | Wind** | Luminosity | Snow |
|---|---|---|---|---|---|---|---|
| 1777655133 | 7.22° C | 96% | 1013.3 hPa | 0 mm | - | - | - |
| 1777654825 | 7.22° C | 95% | 1013 hPa | 0 mm | - | - | - |
| 1777654517 | 7.78° C | 95% | 1012.9 hPa | 0 mm | - | - | - |
| 1777654227 | 7.78° C | 96% | 1012.8 hPa | 0 mm | - | - | - |
| 1777653920 | 8.33° C | 95% | 1012.6 hPa | 0 mm | - | - | - |
| 1777653630 | 8.33° C | 94% | 1012.6 hPa | 0.25 mm | - | - | - |
| 1777653322 | 8.33° C | 97% | 1012.4 hPa | 0.25 mm | - | - | - |
| 1777653032 | 7.78° C | 97% | 1012.4 hPa | 0.25 mm | - | - | - |
| 1777652724 | 8.33° C | 98% | 1012.4 hPa | 0.25 mm | - | - | - |
| 1777652417 | 7.78° C | 99% | 1012.4 hPa | 0.25 mm | - | - | - |
| 1777652128 | 7.22° C | 99% | 1012.3 hPa | 0.25 mm | - | - | - |
| 1777651820 | 7.22° C | 99% | 1012.1 hPa | 0.51 mm | - | - | - |
| 1777651530 | 7.78° C | 99% | 1012.1 hPa | 0.51 mm | - | - | - |
| 1777651222 | 7.78° C | 99% | 1011.8 hPa | 0.51 mm | - | - | - |
| 1777650932 | 7.78° C | 99% | 1011.7 hPa | 0.76 mm | - | - | - |
| 1777650624 | 8.33° C | 99% | 1011.7 hPa | 0.76 mm | - | - | - |
| 1777650316 | 8.33° C | 99% | 1011.7 hPa | 1.27 mm | - | - | - |
| 1777650026 | 8.33° C | 99% | 1011.7 hPa | 1.52 mm | - | - | - |
| 1777649719 | 8.33° C | 99% | 1011.7 hPa | 1.78 mm | - | - | - |
| 1777649429 | 7.78° C | 99% | 1011.7 hPa | 1.78 mm | - | - | - |
| 1777649121 | 7.78° C | 99% | 1011.8 hPa | 2.03 mm | - | - | - |
| 1777648825 | 7.22° C | 99% | 1011.9 hPa | 2.54 mm | - | - | - |
| 1777648524 | 7.22° C | 99% | 1011.9 hPa | 2.54 mm | - | - | - |
| 1777648215 | 7.22° C | 99% | 1011.9 hPa | 2.29 mm | - | - | - |
| 1777647920 | 7.22° C | 99% | 1011.9 hPa | 2.29 mm | - | - | - |
* Rain latest hour (hover to see other rain measurements)
** Current wind speed in m/s (hover to see current wind gust speed)